QPF
0.32 0.30 0.16 0.10 0.10 0.13 0.16 0.19 0.15 0.10 0.13 0.18 0.16 0.06 0.03 0.03 0.01 0.01 0.03 0.04 0.04 0.03 0.01 0.00 0.00 0.00 0.00 0.00 0.00 0.00 0.00 0.00 0.00 0.00 0.00 0.00 0.00 0.00
0.19 0.14 0.09 0.07 0.10 0.12 0.17 0.18 0.19 0.16 0.12 0.26 0.28 0.11 0.10 0.03 0.01 0.01 0.02 0.03 0.04 0.02 0.01 0.00 0.00 0.00 0.00 0.00 0.00 0.00 0.00 0.00 0.00 0.00 0.00 0.00 0.00 0.00
0.03 0.02 0.04 0.07 0.09 0.12 0.16 0.19 0.21 0.23 0.17 0.26 0.40 0.28 0.20 0.10 0.04 0.06 0.03 0.01 0.01 0.01 0.00 0.00 0.00 0.00 0.00 0.00 0.00 0.00 0.00 0.00 0.00 0.00 0.00 0.00 0.00 0.00
0.00 0.01 0.03 0.08 0.11 0.12 0.16 0.21 0.25 0.28 0.24 0.21 0.31 0.38 0.33 0.18 0.11 0.09 0.06 0.02 0.05 0.04 0.01 0.00 0.00 0.00 0.00 0.00 0.00 0.00 0.00 0.00 0.00 0.00 0.00 0.00 0.00 0.00
0.00 0.01 0.02 0.04 0.07 0.10 0.15 0.19 0.22 0.33 0.30 0.23 0.25 0.38 0.36 0.24 0.20 0.14 0.14 0.16 0.09 0.09 0.04 0.01 0.00 0.00 0.00 0.00 0.00 0.00 0.00 0.00 0.00 0.00 0.00 0.00 0.00 0.00
0.02 0.02 0.01 0.02 0.04 0.07 0.12 0.15 0.18 0.19 0.21 0.23 0.25 0.35 0.37 0.27 0.30 0.27 0.20 0.19 0.14 0.11 0.12 0.05 0.01 0.00 0.00 0.00 0.00 0.00 0.00 0.00 0.00 0.00 0.00 0.00 0.00 0.00
0.05 0.01 0.00 0.00 0.01 0.02 0.05 0.11 0.13 0.15 0.18 0.23 0.27 0.33 0.42 0.32 0.24 0.27 0.25 0.19 0.18 0.27 0.34 0.18 0.04 0.01 0.01 0.01 0.01 0.01 0.01 0.00 0.00 0.00 0.00 0.00 0.00 0.00
0.03 0.01 0.00 0.00 0.01 0.01 0.01 0.02 0.02 0.06 0.13 0.20 0.25 0.30 0.38 0.40 0.26 0.20 0.19 0.21 0.20 0.25 0.41 0.44 0.29 0.18 0.14 0.06 0.03 0.03 0.03 0.02 0.01 0.01 0.00 0.00 0.00 0.00
0.00 0.00 0.00 0.00 0.00 0.01 0.01 0.02 0.03 0.01 0.03 0.11 0.13 0.13 0.18 0.20 0.19 0.22 0.24 0.20 0.22 0.29 0.31 0.47 0.71 0.60 0.34 0.20 0.14 0.08 0.04 0.04 0.05 0.05 0.04 0.03 0.01 0.01
0.00 0.00 0.00 0.00 0.00 0.00 0.01 0.04 0.04 0.01 0.01 0.02 0.01 0.01 0.02 0.03 0.03 0.05 0.13 0.22 0.21 0.27 0.32 0.38 0.64 1.06 0.85 0.48 0.34 0.22 0.14 0.10 0.09 0.09 0.08 0.07 0.05 0.02
0.00 0.00 0.00 0.00 0.00 0.00 0.00 0.01 0.01 0.01 0.00 0.00 0.00 0.00 0.00 0.00 0.00 0.03 0.03 0.06 0.16 0.34 0.41 0.41 0.44 0.74 1.21 0.98 0.54 0.26 0.13 0.09 0.08 0.06 0.06 0.05 0.03 0.02
0.00 0.00 0.00 0.00 0.00 0.00 0.00 0.00 0.00 0.00 0.00 0.00 0.00 0.00 0.00 0.00 0.01 0.01 0.01 0.02 0.06 0.22 0.40 0.43 0.42 0.48 0.81 1.09 0.84 0.44 0.19 0.07 0.04 0.02 0.02 0.02 0.02 0.01
0.00 0.00 0.00 0.00 0.00 0.00 0.00 0.00 0.00 0.00 0.00 0.00 0.01 0.01 0.02 0.01 0.01 0.01 0.02 0.05 0.05 0.05 0.10 0.22 0.38 0.45 0.53 0.69 0.70 0.54 0.31 0.15 0.07 0.03 0.02 0.02 0.04 0.04
0.00 0.00 0.00 0.00 0.00 0.00 0.00 0.00 0.00 0.00 0.00 0.00 0.00 0.00 0.00 0.00 0.00 0.01 0.02 0.03 0.04 0.07 0.10 0.19 0.38 0.45 0.54 0.61 0.54 0.39 0.23 0.13 0.08 0.04 0.03 0.02 0.02 0.03
0.00 0.00 0.00 0.00 0.00 0.00 0.00 0.00 0.00 0.00 0.00 0.00 0.00 0.00 0.00 0.00 0.00 0.00 0.01 0.00 0.00 0.00 0.01 0.06 0.13 0.17 0.26 0.37 0.35 0.24 0.14 0.08 0.04 0.03 0.02 0.01 0.01 0.01
0.00 0.00 0.00 0.00 0.00 0.00 0.00 0.00 0.00 0.00 0.00 0.00 0.00 0.00 0.00 0.00 0.00 0.00 0.00 0.01 0.01 0.00 0.00 0.01 0.01 0.02 0.03 0.05 0.07 0.05 0.02 0.01 0.01 0.01 0.01 0.01 0.01 0.02
0.00 0.01 0.01 0.01 0.00 0.00 0.00 0.00 0.00 0.00 0.00 0.00 0.00 0.00 0.00 0.00 0.00 0.00 0.00 0.00 0.00 0.00 0.00 0.00 0.00 0.00 0.00 0.00 0.01 0.01 0.01 0.00 0.00 0.00 0.01 0.00 0.00 0.00
0.00 0.00 0.01 0.01 0.00 0.01 0.01 0.00 0.00 0.00 0.00 0.00 0.00 0.00 0.00 0.00 0.00 0.00 0.00 0.00 0.00 0.00 0.00 0.00 0.00 0.00 0.00 0.00 0.00 0.00 0.00 0.00 0.00 0.00 0.00 0.00 0.00 0.00
0.00 0.00 0.00 0.00 0.00 0.00 0.01 0.01 0.01 0.00 0.00 0.00 0.00 0.00 0.00 0.00 0.00 0.01 0.01 0.01 0.00 0.00 0.00 0.00 0.00 0.00 0.00 0.00 0.00 0.00 0.00 0.00 0.00 0.00 0.00 0.00 0.00 0.00
0.00 0.00 0.00 0.00 0.00 0.00 0.00 0.00 0.00 0.00 0.00 0.00 0.00 0.00 0.00 0.00 0.00 0.00 0.01 0.01 0.01 0.01 0.00 0.00 0.00 0.00 0.00 0.00 0.00 0.00 0.00 0.00 0.00 0.00 0.00 0.00 0.00 0.00
0.00 0.00 0.00 0.00 0.00 0.00 0.00 0.00 0.00 0.00 0.00 0.00 0.00 0.00 0.00 0.00 0.00 0.00 0.00 0.00 0.01 0.02 0.02 0.02 0.00 0.00 0.00 0.00 0.00 0.00 0.00 0.00 0.00 0.00 0.00 0.00 0.00 0.00
0.00 0.00 0.00 0.00 0.00 0.00 0.00 0.00 0.00 0.00 0.00 0.00 0.00 0.00 0.00 0.00 0.00 0.00 0.00 0.00 0.00 0.00 0.01 0.01 0.01 0.01 0.00 0.00 0.00 0.00 0.00 0.00 0.00 0.00 0.00 0.00 0.00 0.00
0.00 0.00 0.00 0.00 0.00 0.00 0.00 0.00 0.00 0.00 0.00 0.00 0.00 0.00 0.00 0.00 0.00 0.00 0.00 0.00 0.00 0.00 0.01 0.02 0.02 0.02 0.02 0.01 0.01 0.01 0.00 0.00 0.00 0.00 0.00 0.00 0.00 0.00
MSLP
1011.09 1011.23 1011.35 1011.44 1011.47 1011.42 1011.30 1011.12 1010.90 1010.67 1010.45 1010.27 1010.13 1010.03 1009.98 1009.97 1010.00 1010.06 1010.17 1010.34 1010.57 1010.88 1011.27 1011.73 1012.24 1012.80 1013.38 1013.95 1014.50 1015.02 1015.51 1015.96 1016.39 1016.79 1017.17 1017.52 1017.82 1018.08
1010.86 1010.92 1010.99 1011.03 1011.02 1010.96 1010.85 1010.69 1010.50 1010.31 1010.13 1009.99 1009.90 1009.85 1009.85 1009.89 1009.98 1010.11 1010.28 1010.51 1010.79 1011.14 1011.53 1011.97 1012.45 1012.95 1013.45 1013.94 1014.42 1014.87 1015.30 1015.71 1016.12 1016.50 1016.87 1017.20 1017.50 1017.74
1010.76 1010.76 1010.76 1010.75 1010.70 1010.61 1010.48 1010.33 1010.16 1010.00 1009.85 1009.75 1009.69 1009.69 1009.73 1009.83 1009.97 1010.15 1010.37 1010.63 1010.94 1011.29 1011.67 1012.08 1012.51 1012.95 1013.38 1013.81 1014.22 1014.62 1015.02 1015.40 1015.79 1016.16 1016.52 1016.84 1017.12 1017.34
1010.82 1010.78 1010.73 1010.66 1010.57 1010.45 1010.30 1010.13 1009.96 1009.81 1009.68 1009.61 1009.58 1009.60 1009.68 1009.81 1009.98 1010.19 1010.43 1010.70 1011.01 1011.34 1011.69 1012.06 1012.43 1012.81 1013.18 1013.55 1013.91 1014.28 1014.64 1015.01 1015.38 1015.75 1016.10 1016.41 1016.67 1016.87
1011.05 1010.98 1010.90 1010.80 1010.67 1010.51 1010.33 1010.14 1009.96 1009.80 1009.67 1009.60 1009.58 1009.62 1009.71 1009.85 1010.03 1010.24 1010.48 1010.75 1011.02 1011.32 1011.62 1011.93 1012.25 1012.56 1012.88 1013.20 1013.52 1013.85 1014.19 1014.54 1014.90 1015.26 1015.59 1015.89 1016.14 1016.33
1011.42 1011.34 1011.25 1011.12 1010.97 1010.78 1010.57 1010.35 1010.14 1009.96 1009.81 1009.72 1009.70 1009.73 1009.81 1009.95 1010.12 1010.32 1010.54 1010.77 1011.01 1011.26 1011.51 1011.76 1012.01 1012.27 1012.53 1012.80 1013.08 1013.38 1013.69 1014.02 1014.36 1014.69 1015.01 1015.29 1015.53 1015.71
1011.87 1011.81 1011.71 1011.59 1011.42 1011.21 1010.97 1010.72 1010.48 1010.26 1010.09 1009.97 1009.91 1009.92 1009.98 1010.09 1010.24 1010.41 1010.60 1010.80 1011.00 1011.20 1011.40 1011.60 1011.79 1012.00 1012.20 1012.43 1012.66 1012.92 1013.19 1013.49 1013.79 1014.09 1014.38 1014.64 1014.86 1015.04
1012.35 1012.30 1012.22 1012.10 1011.93 1011.71 1011.46 1011.18 1010.91 1010.65 1010.44 1010.28 1010.18 1010.15 1010.18 1010.26 1010.37 1010.52 1010.68 1010.84 1011.01 1011.17 1011.33 1011.48 1011.63 1011.79 1011.95 1012.12 1012.31 1012.51 1012.74 1012.98 1013.23 1013.49 1013.73 1013.96 1014.17 1014.34
1012.80 1012.77 1012.70 1012.59 1012.43 1012.21 1011.95 1011.66 1011.35 1011.07 1010.81 1010.61 1010.47 1010.40 1010.39 1010.43 1010.52 1010.63 1010.77 1010.91 1011.05 1011.19 1011.32 1011.44 1011.56 1011.68 1011.79 1011.92 1012.05 1012.20 1012.36 1012.54 1012.72 1012.92 1013.12 1013.31 1013.49 1013.66
1013.21 1013.18 1013.13 1013.03 1012.87 1012.66 1012.40 1012.09 1011.78 1011.46 1011.18 1010.94 1010.76 1010.65 1010.60 1010.60 1010.66 1010.75 1010.86 1010.99 1011.12 1011.24 1011.36 1011.46 1011.56 1011.65 1011.73 1011.81 1011.89 1011.98 1012.07 1012.18 1012.29 1012.42 1012.56 1012.71 1012.87 1013.03
1013.59 1013.55 1013.49 1013.39 1013.24 1013.04 1012.78 1012.48 1012.15 1011.83 1011.52 1011.25 1011.04 1010.89 1010.80 1010.77 1010.80 1010.86 1010.96 1011.07 1011.19 1011.31 1011.42 1011.52 1011.61 1011.68 1011.73 1011.77 1011.81 1011.83 1011.86 1011.90 1011.95 1012.02 1012.11 1012.21 1012.35 1012.50
1013.95 1013.89 1013.81 1013.70 1013.55 1013.35 1013.10 1012.80 1012.48 1012.15 1011.83 1011.54 1011.30 1011.12 1011.00 1010.94 1010.93 1010.97 1011.04 1011.14 1011.25 1011.37 1011.47 1011.57 1011.65 1011.71 1011.74 1011.75 1011.75 1011.73 1011.71 1011.69 1011.69 1011.71 1011.76 1011.84 1011.95 1012.10
1014.32 1014.21 1014.11 1013.98 1013.82 1013.62 1013.37 1013.08 1012.76 1012.44 1012.12 1011.82 1011.56 1011.34 1011.19 1011.09 1011.05 1011.05 1011.09 1011.17 1011.26 1011.37 1011.47 1011.56 1011.63 1011.68 1011.71 1011.70 1011.67 1011.63 1011.58 1011.54 1011.50 1011.50 1011.52 1011.59 1011.70 1011.84
1014.70 1014.54 1014.39 1014.23 1014.05 1013.84 1013.59 1013.31 1013.01 1012.69 1012.38 1012.07 1011.80 1011.56 1011.37 1011.23 1011.14 1011.10 1011.11 1011.15 1011.21 1011.29 1011.38 1011.46 1011.53 1011.57 1011.59 1011.58 1011.55 1011.51 1011.45 1011.40 1011.37 1011.37 1011.40 1011.48 1011.59 1011.75
1015.06 1014.85 1014.65 1014.45 1014.24 1014.02 1013.77 1013.50 1013.22 1012.91 1012.61 1012.30 1012.02 1011.76 1011.53 1011.35 1011.22 1011.13 1011.08 1011.07 1011.10 1011.15 1011.21 1011.27 1011.33 1011.37 1011.40 1011.40 1011.38 1011.35 1011.32 1011.29 1011.29 1011.31 1011.38 1011.48 1011.62 1011.79
1015.36 1015.11 1014.86 1014.62 1014.38 1014.14 1013.90 1013.64 1013.37 1013.09 1012.80 1012.51 1012.22 1011.94 1011.68 1011.46 1011.27 1011.13 1011.03 1010.97 1010.94 1010.95 1010.98 1011.02 1011.07 1011.11 1011.14 1011.16 1011.17 1011.17 1011.18 1011.20 1011.24 1011.32 1011.43 1011.57 1011.75 1011.94
1015.57 1015.27 1014.98 1014.71 1014.45 1014.21 1013.97 1013.74 1013.49 1013.24 1012.97 1012.69 1012.40 1012.11 1011.83 1011.57 1011.34 1011.14 1010.98 1010.87 1010.79 1010.76 1010.76 1010.78 1010.81 1010.85 1010.89 1010.92 1010.96 1011.00 1011.06 1011.13 1011.23 1011.36 1011.52 1011.72 1011.93 1012.15
1015.63 1015.31 1015.00 1014.72 1014.46 1014.22 1014.01 1013.80 1013.59 1013.37 1013.13 1012.87 1012.59 1012.30 1012.01 1011.72 1011.45 1011.20 1011.00 1010.83 1010.72 1010.64 1010.61 1010.60 1010.62 1010.66 1010.70 1010.75 1010.82 1010.89 1010.98 1011.10 1011.25 1011.43 1011.63 1011.86 1012.10 1012.34
1015.57 1015.25 1014.94 1014.67 1014.43 1014.22 1014.04 1013.88 1013.71 1013.53 1013.33 1013.10 1012.84 1012.56 1012.25 1011.94 1011.64 1011.37 1011.12 1010.92 1010.77 1010.67 1010.60 1010.58 1010.58 1010.61 1010.65 1010.71 1010.78 1010.87 1010.98 1011.12 1011.29 1011.49 1011.72 1011.97 1012.22 1012.46
1015.40 1015.11 1014.84 1014.61 1014.41 1014.25 1014.13 1014.01 1013.90 1013.77 1013.61 1013.42 1013.18 1012.91 1012.60 1012.28 1011.97 1011.67 1011.40 1011.17 1011.00 1010.87 1010.78 1010.74 1010.73 1010.74 1010.77 1010.81 1010.87 1010.96 1011.06 1011.19 1011.36 1011.55 1011.77 1012.01 1012.25 1012.47
1015.19 1014.95 1014.74 1014.57 1014.44 1014.36 1014.30 1014.25 1014.20 1014.13 1014.01 1013.85 1013.63 1013.37 1013.07 1012.75 1012.43 1012.11 1011.83 1011.59 1011.40 1011.25 1011.15 1011.09 1011.06 1011.05 1011.05 1011.07 1011.10 1011.15 1011.22 1011.32 1011.44 1011.59 1011.77 1011.97 1012.17 1012.36
1014.97 1014.82 1014.69 1014.60 1014.56 1014.56 1014.58 1014.60 1014.61 1014.59 1014.52 1014.39 1014.19 1013.94 1013.65 1013.32 1012.99 1012.68 1012.39 1012.14 1011.94 1011.78 1011.67 1011.59 1011.54 1011.50 1011.48 1011.46 1011.44 1011.44 1011.45 1011.48 1011.54 1011.62 1011.74 1011.87 1012.01 1012.15
1014.78 1014.72 1014.69 1014.70 1014.75 1014.84 1014.94 1015.03 1015.10 1015.12 1015.09 1014.98 1014.80 1014.56 1014.26 1013.94 1013.61 1013.29 1013.00 1012.75 1012.54 1012.38 1012.26 1012.17 1012.10 1012.04 1011.98 1011.91 1011.84 1011.78 1011.72 1011.67 1011.65 1011.66 1011.69 1011.75 1011.82 1011.90
Thickness
5705 5706 5708 5712 5715 5716 5716 5715 5709 5705 5709 5716 5718 5724 5723 5720 5716 5713 5713 5714 5712 5710 5708 5704 5700 5697 5691 5684 5678 5674 5671 5667 5664 5662 5659 5657 5656 5655
5696 5699 5702 5706 5709 5711 5712 5712 5710 5705 5704 5711 5713 5717 5717 5715 5711 5707 5705 5705 5703 5701 5697 5693 5690 5688 5685 5681 5675 5671 5668 5666 5664 5662 5660 5659 5659 5658
5689 5693 5696 5701 5702 5704 5705 5707 5706 5704 5700 5706 5710 5712 5711 5709 5705 5703 5700 5698 5696 5694 5689 5685 5682 5681 5679 5677 5673 5670 5667 5666 5664 5663 5662 5661 5661 5661
5681 5684 5687 5692 5694 5697 5698 5700 5701 5702 5700 5700 5704 5704 5704 5704 5702 5700 5697 5696 5693 5690 5686 5682 5679 5677 5676 5675 5673 5670 5668 5667 5665 5663 5662 5661 5662 5662
5675 5676 5677 5681 5683 5687 5691 5694 5696 5698 5699 5697 5699 5701 5699 5699 5696 5695 5694 5694 5692 5689 5684 5681 5678 5676 5675 5675 5673 5671 5669 5668 5666 5664 5663 5661 5661 5661
5669 5668 5669 5671 5672 5676 5681 5685 5689 5691 5692 5692 5693 5695 5693 5693 5690 5686 5685 5687 5687 5686 5681 5677 5675 5674 5674 5674 5673 5672 5670 5668 5667 5665 5664 5663 5662 5662
5658 5659 5659 5661 5663 5665 5669 5673 5677 5679 5681 5683 5685 5687 5686 5684 5682 5681 5678 5679 5679 5680 5676 5673 5672 5670 5670 5671 5672 5672 5671 5669 5667 5665 5665 5665 5664 5664
5647 5649 5650 5651 5654 5656 5659 5661 5663 5664 5666 5670 5672 5674 5674 5675 5674 5673 5672 5670 5668 5673 5671 5667 5668 5667 5668 5668 5671 5671 5670 5668 5667 5666 5666 5666 5665 5664
5633 5634 5636 5636 5638 5642 5648 5649 5650 5652 5654 5657 5657 5659 5661 5661 5663 5663 5663 5663 5662 5663 5664 5662 5663 5661 5661 5660 5662 5664 5665 5666 5666 5667 5667 5667 5667 5666
5615 5617 5618 5619 5622 5628 5636 5637 5638 5640 5643 5646 5647 5647 5648 5650 5652 5654 5655 5656 5657 5657 5658 5655 5656 5655 5655 5653 5653 5655 5657 5660 5663 5666 5667 5667 5667 5665
5600 5600 5602 5604 5607 5613 5620 5623 5625 5627 5630 5633 5635 5635 5635 5638 5641 5645 5646 5646 5645 5647 5649 5649 5649 5649 5650 5647 5645 5646 5648 5651 5655 5659 5663 5664 5664 5662
5590 5589 5587 5588 5591 5595 5601 5605 5607 5610 5615 5622 5623 5625 5627 5629 5631 5633 5635 5635 5634 5636 5638 5640 5641 5642 5643 5644 5641 5639 5640 5643 5647 5652 5655 5657 5658 5657
5580 5578 5574 5575 5579 5582 5586 5590 5592 5596 5603 5612 5616 5618 5619 5620 5621 5623 5624 5624 5624 5625 5629 5631 5633 5634 5634 5637 5636 5636 5637 5639 5640 5644 5648 5651 5651 5652
5563 5562 5562 5564 5567 5571 5574 5578 5583 5588 5594 5599 5602 5603 5605 5607 5610 5613 5614 5616 5617 5618 5622 5623 5624 5626 5627 5628 5628 5627 5630 5633 5636 5639 5643 5645 5645 5645
5551 5550 5552 5554 5558 5561 5563 5566 5571 5575 5579 5582 5584 5588 5592 5596 5600 5602 5604 5606 5608 5611 5613 5616 5618 5619 5620 5620 5620 5620 5621 5625 5629 5633 5636 5639 5640 5639
5542 5544 5546 5548 5550 5551 5553 5555 5557 5559 5563 5567 5571 5574 5579 5584 5587 5591 5593 5596 5596 5598 5604 5608 5611 5612 5612 5614 5614 5614 5617 5620 5624 5627 5629 5631 5633 5632
5529 5533 5536 5539 5540 5542 5543 5545 5546 5547 5550 5553 5557 5560 5564 5568 5572 5576 5580 5584 5587 5588 5590 5596 5601 5603 5604 5605 5606 5608 5611 5613 5617 5620 5621 5619 5620 5621
5516 5521 5525 5528 5531 5532 5533 5534 5535 5537 5539 5541 5543 5546 5550 5554 5558 5561 5564 5567 5571 5577 5581 5584 5587 5588 5589 5592 5595 5598 5601 5603 5607 5611 5613 5611 5608 5609
5507 5511 5515 5519 5521 5522 5522 5522 5523 5525 5527 5530 5533 5535 5538 5542 5546 5550 5552 5553 5557 5561 5567 5573 5576 5574 5572 5574 5579 5587 5588 5590 5594 5597 5600 5602 5601 5599
5505 5506 5507 5509 5509 5507 5507 5507 5507 5509 5511 5514 5519 5523 5527 5531 5535 5539 5543 5544 5546 5550 5554 5558 5561 5563 5563 5566 5570 5574 5578 5580 5581 5583 5586 5589 5590 5591
5499 5496 5493 5490 5488 5487 5487 5487 5488 5489 5491 5494 5499 5505 5511 5517 5522 5527 5532 5536 5539 5541 5543 5547 5552 5554 5556 5560 5561 5563 5566 5569 5573 5574 5576 5576 5577 5579
5484 5479 5475 5471 5468 5467 5466 5466 5467 5468 5470 5474 5478 5483 5489 5496 5502 5508 5514 5519 5524 5530 5534 5538 5542 5544 5547 5547 5548 5552 5555 5557 5560 5565 5568 5569 5568 5567
5468 5463 5459 5456 5452 5448 5447 5446 5446 5447 5449 5451 5455 5459 5465 5471 5478 5485 5490 5496 5502 5508 5516 5522 5527 5530 5533 5536 5537 5538 5544 5549 5551 5552 5556 5561 5563 5564